Tracking 25612 objects as of 20-May-2022
HD Live streaming from Space Station
objects crossing your sky now

COSMOS 2251 DEB

Track COSMOS 2251 DEB now!
10-day predictions


NORAD ID: 37312
Int'l Code: 1993-036BKC
Perigee: 752.6 km
Apogee: 781.0 km
Inclination: 74.0 °
Period: 100.0 minutes
Semi major axis: 7137 km
RCS: 0.0199 m2 (small)
Launch date: June 16, 1993
Source: Commonwealth of Independent States (former USSR) (CIS)
Launch site: PLESETSK MISSILE AND SPACE COMPLEX (PKMTR)

Note: This is SATELLITE DEBRIS
aabbcc
Your satellite tracking list
Your tracking list is empty




NASA's NSSDC Master Catalog

Two Line Element Set (TLE):
1 37312U 93036BKC 22139.22328309  .00001578  00000-0  51187-3 0  9999
2 37312  74.0331 102.6729 0019872 169.4241 190.7336 14.39646711673699
Source of the keplerian elements: AFSPC